KB1WCR Weather Reports


time (UTC)temp
F
wind
direction
speed
knots
gust
knots
rain 1hr
in
rain 24hr
in
rain mn
in
humidity
%
barometer
mb
20260504192001 68 251 1.7 2.6 0.00 0.00 0.00 44 1005.2
20260504191458 68 308 11.3 14.8 0.00 0.00 0.00 41 1005.1
20260504190954 68 230 3.5 6.1 0.00 0.00 0.00 43 1005.0
20260504190449 68 302 6.1 7.8 0.00 0.00 0.00 42 1005.1
20260504185946 67 193 3.5 3.5 0.00 0.00 0.00 44 1005.2
20260504185444 66 198 3.5 5.2 0.00 0.00 0.00 46 1005.3
20260504184939 66 235 3.5 3.5 0.00 0.00 0.00 46 1005.1
20260504184436 64 237 1.7 1.7 0.00 0.00 0.00 46 1005.5
20260504183931 64 288 3.5 5.2 0.00 0.00 0.00 46 1005.4
20260504183429 64 283 5.2 6.1 0.00 0.00 0.00 45 1005.4
20260504182927 64 265 5.2 6.1 0.00 0.00 0.00 46 1005.5
20260504182423 64 17 0.9 1.7 0.00 0.00 0.00 46 1005.7
20260504181921 64 292 2.6 2.6 0.00 0.00 0.00 45 1005.6
20260504181418 64 276 5.2 7.8 0.00 0.00 0.00 43 1005.4
20260504180916 64 305 3.5 7.0 0.00 0.00 0.00 44 1005.3
20260504180415 64 226 2.6 2.6 0.00 0.00 0.00 45 1005.4
20260504175913 65 252 1.7 3.5 0.00 0.00 0.00 43 1005.5
20260504175409 65 266 2.6 3.5 0.00 0.00 0.00 44 1005.7
20260504174907 65 283 2.6 2.6 0.00 0.00 0.00 43 1005.5
20260504174404 65 226 4.3 6.1 0.00 0.00 0.00 42 1005.5
20260504173902 65 277 3.5 5.2 0.00 0.00 0.00 43 1005.4
20260504173358 65 298 5.2 7.0 0.00 0.00 0.00 41 1005.5
20260504172855 65 173 6.1 9.6 0.00 0.00 0.00 41 1005.4
20260504172352 65 225 2.6 5.2 0.00 0.00 0.00 42 1005.7
20260504171847 65 266 6.1 9.6 0.00 0.00 0.00 40 1005.3
20260504171345 66 261 6.1 7.8 0.00 0.00 0.00 41 1005.6
20260504170842 67 269 5.2 7.0 0.00 0.00 0.00 41 1005.2
20260504170338 67 294 7.8 9.6 0.00 0.00 0.00 40 1005.1
20260504160257 66 277 7.0 8.7 0.00 0.00 0.00 46 1005.3
20260504150722 62 201 7.8 12.2 0.00 0.00 0.00 49 1006.3
20260504150219 62 257 4.3 6.1 0.00 0.00 0.00 51 1006.3
20260504141148 59 216 3.5 5.2 0.00 0.00 0.00 58 1007.1
20260504140645 58 220 1.7 1.7 0.00 0.00 0.00 61 1007.3
20260504140140 57 234 0.0 0.0 0.00 0.00 0.00 62 1007.3
20260504130609 51 263 0.9 0.9 0.00 0.00 0.00 71 1008.0
20260504130106 51 227 1.7 1.7 0.00 0.00 0.00 70 1008.3
20260504110457 45 281 0.0 0.0 0.00 0.00 0.00 78 1008.6
20260504100419 36 13 0.0 0.0 0.00 0.00 0.00 90 1008.5
20260504081812 33 296 0.0 0.0 0.00 0.00 0.00 96 1008.5
20260504081309 32 45 0.0 0.0 0.00 0.00 0.00 96 1008.4
20260504080805 33 303 0.0 0.0 0.00 0.00 0.00 95 1008.4
20260504080302 33 310 0.0 0.0 0.00 0.00 0.00 95 1008.4
20260504070229 30 329 0.0 0.0 0.00 0.00 0.00 97 1008.4
20260504060150 30 316 0.0 0.0 0.00 0.00 0.00 97 1008.3
20260504050618 30 314 0.0 0.0 0.00 0.00 0.00 96 1008.3
20260504050115 30 307 0.0 0.0 0.00 0.00 0.00 96 1008.2
20260504045612 30 299 0.0 0.0 0.00 0.00 0.00 96 1008.3
20260504045107 30 292 0.0 0.0 0.00 0.00 0.00 96 1008.3
20260504044605 29 300 0.0 0.0 0.00 0.00 0.00 96 1008.1
20260504044102 30 292 0.0 0.0 0.00 0.00 0.00 96 1008.2
20260504043559 30 331 0.0 0.0 0.00 0.00 0.00 96 1008.1
20260504043055 30 331 0.0 0.0 0.00 0.00 0.00 95 1008.1
20260504042553 30 331 0.0 0.0 0.00 0.00 0.00 95 1008.1
20260504042050 30 307 0.0 0.0 0.00 0.00 0.00 95 1008.1
20260504041545 30 318 0.0 0.0 0.00 0.00 0.00 95 1008.0
20260504041042 31 290 0.0 0.0 0.00 0.00 0.00 95 1008.1
20260504040539 31 303 0.0 0.0 0.00 0.00 0.00 94 1008.0
20260504040036 31 297 0.0 0.0 0.00 0.00 0.00 94 1007.9
20260504035532 31 294 0.0 0.0 0.00 0.00 0.00 94 1008.0
20260504035029 31 294 0.0 0.0 0.00 0.00 0.00 94 1008.0
20260504034527 30 292 0.0 0.0 0.00 0.00 0.00 93 1008.0
20260504034024 31 293 0.0 0.0 0.00 0.00 0.00 93 1007.8
20260504033522 31 290 0.0 0.0 0.00 0.00 0.00 93 1007.9
20260504033019 32 290 0.0 0.0 0.00 0.00 0.00 92 1007.7
20260504032515 32 296 0.0 0.0 0.00 0.00 0.00 92 1008.0
20260504032012 32 296 0.0 0.0 0.00 0.00 0.00 92 1007.8
20260504031509 32 299 0.0 0.0 0.00 0.00 0.00 91 1007.9
20260504031005 33 327 0.0 0.0 0.00 0.00 0.00 90 1008.0
20260504030503 33 280 0.0 0.0 0.00 0.00 0.00 91 1008.0
20260504025958 33 310 0.0 0.0 0.00 0.00 0.00 90 1007.8
20260504025456 33 294 0.0 0.0 0.00 0.00 0.00 89 1007.8
20260504024952 33 298 0.0 0.0 0.00 0.00 0.00 89 1007.9
20260504024449 34 303 0.0 0.0 0.00 0.00 0.00 88 1007.8
20260504023947 35 311 0.0 0.0 0.00 0.00 0.00 87 1007.7
20260504023444 34 319 0.0 0.0 0.00 0.00 0.00 87 1007.6
20260504022938 35 286 0.0 0.0 0.00 0.00 0.00 87 1007.8
20260504022435 35 297 0.0 0.0 0.00 0.00 0.00 86 1007.8
20260504021932 35 288 0.0 0.0 0.00 0.00 0.00 86 1007.8
20260504021429 35 316 0.0 0.0 0.00 0.00 0.00 85 1007.9
20260504020926 36 300 0.0 0.0 0.00 0.00 0.00 83 1007.9
20260504020423 36 294 0.0 0.0 0.00 0.00 0.00 82 1007.8
20260504015920 36 296 0.0 0.0 0.00 0.00 0.00 81 1007.7
20260504015416 36 292 0.0 0.0 0.00 0.00 0.00 80 1007.8
20260504014912 37 288 0.0 0.0 0.00 0.00 0.00 80 1007.7
20260504014408 37 296 0.0 0.0 0.00 0.00 0.00 80 1007.9
20260504013905 38 299 0.0 0.0 0.00 0.00 0.00 78 1007.8
20260504013403 38 322 0.0 0.0 0.00 0.00 0.00 78 1007.5
20260504012859 39 299 0.0 0.0 0.00 0.00 0.00 77 1007.8
20260504012357 39 316 0.0 0.0 0.00 0.00 0.00 75 1007.7
20260504011854 40 312 0.0 0.0 0.00 0.00 0.00 72 1007.6
20260504011351 41 305 0.0 0.0 0.00 0.00 0.00 71 1007.6
20260504010847 42 283 0.0 0.0 0.00 0.00 0.00 66 1007.4
20260504010343 43 278 0.0 0.0 0.00 0.00 0.00 64 1007.4
20260504005839 44 267 0.0 0.0 0.00 0.00 0.00 63 1007.2
20260504005336 44 268 0.0 0.0 0.00 0.00 0.00 63 1007.3
20260504004834 44 261 0.0 0.0 0.00 0.00 0.00 61 1007.3
20260504004331 45 284 0.9 1.7 0.00 0.00 0.00 61 1007.3
20260504003827 45 259 1.7 1.7 0.00 0.00 0.00 60 1007.1
20260504003325 45 264 0.9 1.7 0.00 0.00 0.00 60 1007.1
20260504002821 46 272 0.0 0.9 0.00 0.00 0.00 59 1006.9
20260504002318 46 298 1.7 2.6 0.00 0.00 0.00 58 1006.8
20260504001816 46 244 0.9 0.9 0.00 0.00 0.00 57 1006.6
20260504001313 46 300 0.9 1.7 0.00 0.00 0.00 57 1006.7
20260504000810 46 288 1.7 2.6 0.00 0.00 0.00 57 1006.5
20260504000307 46 282 1.7 2.6 0.00 0.00 0.00 56 1006.4
20260503235804 47 311 2.6 2.6 0.00 0.00 0.00 55 1006.4
20260503235304 47 260 1.7 1.7 0.00 0.00 0.00 56 1006.5
20260503234759 47 292 1.7 2.6 0.00 0.00 0.00 55 1006.3
20260503234257 48 235 2.6 2.6 0.00 0.00 0.00 55 1006.2
20260503233754 48 284 3.5 5.2 0.00 0.00 0.00 53 1006.0
20260503233249 48 264 0.9 1.7 0.00 0.00 0.00 56 1005.9
20260503232747 48 276 0.9 0.9 0.00 0.00 0.00 55 1005.8
20260503232244 48 292 0.9 1.7 0.00 0.00 0.00 55 1005.7
20260503231742 49 299 0.9 0.9 0.00 0.00 0.00 54 1005.6
20260503231239 49 288 1.7 2.6 0.00 0.00 0.00 53 1005.6
20260503230734 49 316 2.6 2.6 0.00 0.00 0.00 53 1005.5
20260503230232 50 268 0.9 0.9 0.00 0.00 0.00 53 1005.5
20260503225724 50 263 3.5 5.2 0.00 0.00 0.00 51 1005.3
20260503225224 50 314 2.6 2.6 0.00 0.00 0.00 52 1005.4
20260503224721 50 258 1.7 3.5 0.00 0.00 0.00 51 1005.1
20260503224219 50 245 2.6 5.2 0.00 0.00 0.00 50 1005.3
20260503223716 51 229 0.9 1.7 0.00 0.00 0.00 51 1005.0
20260503223214 51 287 5.2 7.8 0.00 0.00 0.00 49 1005.0
20260503222710 50 297 2.6 3.5 0.00 0.00 0.00 50 1004.9
20260503222208 50 302 1.7 2.6 0.00 0.00 0.00 50 1004.8
20260503221706 50 192 7.8 9.6 0.00 0.00 0.00 51 1004.8
20260503221203 50 269 1.7 1.7 0.00 0.00 0.00 51 1004.7
20260503220700 50 354 3.5 5.2 0.00 0.00 0.00 51 1004.7
20260503220156 50 201 3.5 6.1 0.00 0.00 0.00 51 1004.7
20260503215653 50 256 0.9 1.7 0.00 0.00 0.00 53 1004.7
20260503215149 50 231 0.9 0.9 0.00 0.00 0.00 55 1004.5
20260503214649 50 276 1.7 1.7 0.00 0.00 0.00 54 1004.6
20260503214144 50 287 4.3 7.0 0.00 0.00 0.00 52 1004.6
20260503213638 50 273 3.5 6.1 0.00 0.00 0.00 54 1004.5
20260503213134 50 78 1.7 1.7 0.00 0.00 0.00 55 1004.6
20260503212631 51 26 2.6 3.5 0.00 0.00 0.00 55 1004.6
20260503212129 51 283 4.3 7.0 0.00 0.00 0.00 54 1004.4
20260503211627 51 288 2.6 3.5 0.00 0.00 0.00 54 1004.3
20260503211121 51 288 0.9 1.7 0.00 0.00 0.00 55 1004.2
20260503210618 51 0 1.7 3.5 0.00 0.00 0.00 55 1004.1
20260503210115 51 33 1.7 1.7 0.00 0.00 0.00 54 1004.2
20260503205611 51 289 0.0 0.9 0.00 0.00 0.00 55 1004.2
20260503205107 51 38 6.1 7.0 0.00 0.00 0.00 52 1004.1
20260503204604 51 350 4.3 7.8 0.00 0.00 0.00 53 1004.2
20260503204101 51 45 1.7 2.6 0.00 0.00 0.00 54 1004.2
20260503203558 51 338 2.6 3.5 0.00 0.00 0.00 53 1004.2
20260503203056 52 334 3.5 5.2 0.00 0.00 0.00 53 1004.1
20260503202553 52 170 3.5 7.0 0.00 0.00 0.00 53 1004.3
20260503202051 52 38 5.2 12.2 0.00 0.00 0.00 52 1004.1
20260503201549 52 299 2.6 7.0 0.00 0.00 0.00 53 1004.1
20260503201046 52 267 0.9 1.7 0.00 0.00 0.00 54 1004.2
20260503200542 51 339 1.7 2.6 0.00 0.00 0.00 54 1004.1
20260503200038 51 355 0.9 2.6 0.00 0.00 0.00 52 1004.3
20260503195536 52 309 3.5 5.2 0.00 0.00 0.00 53 1004.3
20260503195027 52 256 3.5 3.5 0.00 0.00 0.00 54 1004.3
20260503194525 53 29 3.5 5.2 0.00 0.00 0.00 53 1004.2
20260503194024 54 335 2.6 3.5 0.00 0.00 0.00 54 1004.1
20260503193521 53 287 4.3 5.2 0.00 0.00 0.00 56 1004.3
20260503193017 53 312 3.5 5.2 0.00 0.00 0.00 54 1004.4
20260503192513 53 298 2.6 5.2 0.00 0.00 0.00 56 1004.4